Lapse_Rate
1.9 2.2 2.3 2.4 2.0 2.2 1.6 1.0 0.5 0.2 -0.0 1.4 0.9 0.3 0.3 0.6 0.8 0.8 0.9 1.3 1.4 2.2
0.8 1.1 1.0 0.7 1.0 1.0 1.0 0.6 0.0 0.5 0.4 0.6 1.0 0.5 0.2 0.3 0.1 0.2 0.4 1.1 1.4 1.9
0.7 0.6 0.3 -0.1 -0.4 -0.5 -0.4 -0.0 0.2 0.0 0.3 0.3 -0.2 -0.4 -0.5 -0.4 -0.2 0.3 0.1 0.7 0.9 1.9
0.3 0.1 -0.2 -0.3 -0.7 -0.6 -0.1 -0.0 0.3 0.4 0.4 -0.2 -1.0 -1.2 -0.7 -0.6 -0.3 -0.8 -0.2 -0.1 0.8 1.8
-0.1 -0.4 -0.4 -0.4 -0.2 0.1 0.5 0.9 1.0 1.0 0.5 -0.0 -0.6 -0.6 -0.5 -0.3 -0.6 -0.5 -0.1 0.2 1.1 2.1
0.0 0.4 0.4 0.3 0.4 0.7 0.7 0.8 0.6 0.6 0.1 -0.3 -0.6 -0.9 -0.8 -0.7 -1.0 -0.8 -0.5 0.1 1.1 1.9
0.8 0.7 0.6 0.3 0.4 0.5 0.4 0.4 0.1 -0.1 -0.3 -0.6 -1.1 -1.1 -1.4 -1.2 -1.2 -1.1 -0.6 -0.1 0.8 1.9
0.6 0.7 0.6 0.6 0.5 0.5 0.7 0.5 0.2 -0.2 -0.7 -0.6 -0.4 -0.8 -0.8 -0.6 -0.6 -0.3 0.2 0.3 0.4 1.7
0.1 0.2 0.4 0.4 0.2 0.0 -0.4 -0.3 -0.1 -0.1 -0.2 -0.1 -0.1 0.3 0.1 -0.2 0.2 0.1 0.2 0.2 2.2 3.7
0.8 0.8 0.5 0.3 0.0 -0.0 -0.1 -0.5 -0.4 -0.5 -0.2 -0.2 -0.1 0.4 0.5 0.3 -0.1 0.0 0.5 1.9 3.2 3.5
0.7 1.0 0.8 0.5 0.5 0.0 -0.2 -0.2 -0.1 -0.1 -0.1 -0.1 -0.2 0.8 1.1 0.7 -0.6 -0.3 2.6 3.1 3.2 3.6
0.8 0.8 0.4 0.2 0.2 -0.3 -0.2 -0.4 -0.7 -0.7 -1.0 -0.6 -0.1 1.2 1.6 1.2 1.3 2.7 3.7 3.2 3.0 3.2
1.1 1.3 0.7 0.7 0.1 -1.1 -0.5 -0.9 -0.7 -0.7 -0.3 0.1 0.7 0.9 1.9 1.2 1.3 2.8 3.2 2.9 3.0 4.2
0.3 0.9 1.1 0.5 -0.7 -0.8 -0.6 -0.5 -0.3 0.1 0.3 0.5 0.7 0.6 1.8 2.2 1.6 2.7 3.1 3.4 3.4 3.1
Wind_Speed
5 4 5 7 6 7 7 7 10 7 9 9 8 8 9 4 4 4 3 3 3 2
3 5 5 6 5 5 5 5 8 8 8 8 9 7 6 4 5 4 4 2 2 2
3 3 4 5 6 7 7 8 8 9 8 8 6 6 5 4 3 4 3 2 2 2
4 3 4 5 6 7 9 10 8 8 9 7 6 5 5 3 5 6 4 2 2 2
4 4 5 6 7 9 10 9 11 10 9 8 6 6 6 6 3 5 3 2 3 3
4 6 6 7 8 8 9 9 8 9 9 9 7 6 5 5 5 5 4 3 2 2
5 5 5 6 7 7 7 7 7 7 7 7 7 6 5 5 5 5 5 4 3 1
4 6 7 7 7 7 7 6 7 7 6 6 6 5 6 5 5 5 4 3 2 1
4 4 5 6 7 7 7 8 8 7 7 6 4 10 8 5 4 4 4 4 3 3
6 6 6 6 7 7 8 7 7 6 6 5 4 6 5 5 3 4 4 4 4 3
7 7 7 8 9 7 6 6 7 7 6 5 3 6 4 4 3 3 4 5 5 6
7 7 8 8 7 5 6 5 4 4 5 5 4 7 7 6 4 4 5 4 4 4
8 9 10 9 8 4 3 4 4 4 5 8 6 9 10 8 4 4 4 4 3 7
7 9 9 9 6 6 6 6 6 5 5 6 6 6 9 9 4 4 4 4 4 4
Wind_Direction
186 178 188 190 177 180 177 180 160 152 142 153 157 155 136 154 169 164 121 166 200 212
151 163 166 159 153 157 148 156 158 146 137 149 164 147 137 158 157 154 142 180 177 197
160 165 155 147 151 143 131 136 142 139 136 141 129 127 131 148 159 147 135 178 139 198
133 137 135 132 136 132 134 135 130 125 129 130 130 133 137 144 189 141 139 133 172 198
109 118 127 138 143 140 138 136 141 144 138 139 140 152 157 174 165 107 123 139 171 185
133 143 142 141 138 135 136 136 136 143 144 146 150 144 166 142 119 126 125 125 133 146
167 155 149 137 135 136 135 137 139 139 141 147 149 156 131 136 130 125 127 136 137 164
166 156 153 150 146 144 142 139 137 136 137 149 154 143 149 148 141 145 157 152 142 109
182 167 159 154 153 148 141 148 153 156 157 167 158 155 152 149 162 176 174 168 147 115
195 184 179 168 162 161 164 157 161 154 168 163 157 162 160 169 184 188 179 162 161 168
193 191 180 179 180 171 166 172 172 175 172 164 177 181 184 146 144 155 174 178 181 185
196 189 181 188 183 171 165 184 173 171 163 179 188 194 190 157 171 180 183 183 178 180
202 194 190 185 177 158 177 178 174 165 187 196 194 200 195 180 174 194 189 175 184 202
212 203 194 176 165 171 170 162 173 190 196 202 201 207 204 190 187 200 191 199 199 208